CW5586 Weather Reports


Display with metric or nautical units.
time (UTC)temp
F
wind
direction
speed
MPH
gust
MPH
rain 1hr
in
rain 24hr
in
rain mn
in
humidity
%
barometer
mb
20260901013603 57 0 0.0 0.0 0.00 0.46 0.00 96 1007.1
20260901010603 58 0 0.0 0.0 0.00 0.46 0.00 96 1007.0
20260901010115 57 0 0.0 0.0 0.00 0.46 0.00 96 1007.0
20260901004103 57 0 0.0 0.0 0.00 0.46 0.00 96 1006.9
20260901003604 57 0 0.0 0.0 0.00 0.46 0.00 96 1006.8
20260901003105 57 0 0.0 0.0 0.00 0.46 0.00 96 1006.9
20260901001603 58 0 0.0 0.0 0.00 0.46 0.00 96 1006.9
20260901000115 58 0 0.0 0.0 0.00 0.46 0.00 96 1006.9
20260831234104 57 0 0.0 0.0 0.00 0.46 0.00 96 1006.8
20260831231604 57 0 0.0 0.0 0.00 0.46 0.00 96 1006.9
20260831231104 57 0 0.0 1.0 0.00 0.46 0.00 96 1006.8
20260831230115 57 0 0.0 2.0 0.23 0.46 0.00 96 1006.9
20260831224603 57 0 0.0 2.0 0.23 0.46 0.00 96 1006.9
20260831220603 57 0 0.0 0.0 0.23 0.46 0.00 95 1006.8
20260831220115 57 0 0.0 0.0 0.00 0.46 0.23 95 1006.7
20260831214604 57 0 0.0 0.0 0.00 0.44 0.23 95 1006.7
20260831214104 57 0 0.0 0.0 0.00 0.44 0.23 95 1006.7
20260831211603 58 0 0.0 0.0 0.00 0.44 0.23 95 1006.5
20260831211104 58 0 0.0 0.0 0.00 0.44 0.23 95 1006.5
20260831210115 58 0 0.0 0.0 0.00 0.44 0.23 95 1006.6
20260831204103 58 0 0.0 0.0 0.00 0.44 0.23 95 1006.6
20260831201603 58 0 0.0 0.0 0.00 0.44 0.23 95 1006.6
20260831201104 58 0 0.0 2.0 0.00 0.44 0.23 95 1006.6
20260831200603 58 0 0.0 2.0 0.00 0.44 0.23 95 1006.6
20260831194603 58 0 0.0 2.0 0.00 0.44 0.23 95 1006.6
20260831194104 58 0 0.0 2.0 0.00 0.44 0.23 94 1006.6
20260831191604 58 0 0.0 2.0 0.00 0.44 0.23 94 1006.4
20260831190115 58 112 1.0 2.0 0.00 0.44 0.23 94 1006.4
20260831184604 59 141 1.0 2.0 0.00 0.44 0.23 94 1006.4
20260831180604 59 0 0.0 2.0 0.00 0.44 0.23 94 1006.2
20260831174103 60 65 1.0 3.0 0.06 0.44 0.23 94 1006.0
20260831173603 60 77 1.0 2.0 0.09 0.44 0.23 94 1006.0
20260831173103 60 74 0.0 3.0 0.10 0.45 0.23 94 1006.0
20260831171104 60 89 2.0 2.0 0.17 0.46 0.23 94 1005.9
20260831163604 60 200 1.0 2.0 0.11 0.39 0.14 93 1006.0
20260831163103 61 0 0.0 2.0 0.09 0.37 0.13 93 1006.1
20260831161603 61 0 0.0 2.0 0.05 0.34 0.08 93 1006.2
20260831154103 61 0 0.0 2.0 0.00 0.35 0.03 92 1006.2
20260831151605 61 126 1.0 2.0 0.02 0.35 0.03 92 1006.3
20260831151104 60 126 1.0 2.0 0.03 0.36 0.03 92 1006.3
20260831150604 60 123 1.0 3.0 0.03 0.36 0.03 92 1006.3
20260831143603 60 157 1.0 1.0 0.03 0.40 0.03 90 1006.3
20260831140115 64 172 6.0 7.0 0.00 0.39 0.00 75 1006.4
20260831134103 64 207 3.0 9.0 0.00 0.39 0.00 74 1006.5
20260831133604 65 189 5.0 10.0 0.00 0.39 0.00 74 1006.5
20260831133104 65 200 3.0 10.0 0.00 0.39 0.00 74 1006.5
20260831131603 66 113 3.0 9.0 0.00 0.39 0.00 74 1006.6
20260831124103 67 248 8.0 14.0 0.00 0.42 0.00 72 1006.4
20260831123604 66 215 3.0 10.0 0.00 0.42 0.00 74 1006.4
20260831121103 65 143 2.0 6.0 0.00 0.42 0.00 77 1006.5
20260831120116 66 213 5.0 8.0 0.00 0.42 0.00 75 1006.4
20260831114604 66 252 1.0 9.0 0.00 0.42 0.00 74 1006.4
20260831114105 66 257 5.0 9.0 0.00 0.42 0.00 74 1006.4
20260831110604 64 218 2.0 9.0 0.00 0.42 0.00 76 1006.6
20260831110115 64 192 5.0 10.0 0.00 0.42 0.00 75 1006.6
20260831104603 64 180 7.0 10.0 0.00 0.42 0.00 74 1006.7
20260831100116 63 188 5.0 14.0 0.00 0.42 0.00 77 1006.8
20260831091603 63 195 1.0 7.0 0.00 0.42 0.00 80 1006.8
20260831084103 63 177 2.0 8.0 0.00 0.42 0.00 81 1006.5
20260831083604 62 217 7.0 10.0 0.00 0.42 0.00 82 1006.5
20260831074604 62 217 3.0 10.0 0.00 0.42 0.00 83 1006.6
20260831073104 61 191 9.0 8.0 0.00 0.42 0.00 85 1006.6
20260831070605 60 246 1.0 8.0 0.00 0.42 0.00 86 1006.6
20260831070115 60 205 2.0 10.0 0.00 0.42 0.00 86 1006.6
20260831064604 60 164 5.0 7.0 0.00 0.42 0.00 84 1006.6
20260831063603 60 236 5.0 12.0 0.00 0.42 0.00 85 1006.7
20260831060604 59 174 14.0 9.0 0.00 0.42 0.00 88 1006.6
20260831060115 59 211 2.0 9.0 0.00 0.42 0.00 87 1006.5
20260831054604 59 223 2.0 10.0 0.00 0.42 0.00 87 1006.5
20260831053604 58 195 9.0 9.0 0.00 0.42 0.00 88 1006.4
20260831051604 58 242 5.0 8.0 0.00 0.42 0.00 88 1006.3
20260831050115 58 243 5.0 12.0 0.00 0.43 0.00 87 1006.3
20260831044104 58 211 1.0 10.0 0.00 0.43 0.00 87 1006.2
20260831040116 58 222 5.0 10.0 0.00 0.43 0.00 87 1006.2
20260831034605 58 161 2.0 12.0 0.00 0.43 0.00 86 1006.1
20260831034104 58 213 6.0 12.0 0.00 0.43 0.00 86 1006.1
20260831033603 58 201 3.0 10.0 0.00 0.43 0.00 86 1006.1
20260831031605 58 277 5.0 7.0 0.00 0.43 0.00 86 1006.1
20260831030604 58 211 2.0 9.0 0.00 0.43 0.00 85 1006.2
20260831030116 58 232 3.0 9.0 0.00 0.43 0.00 85 1006.1
20260831024604 58 198 3.0 8.0 0.00 0.43 0.00 84 1006.1
20260831023104 58 196 6.0 12.0 0.00 0.43 0.00 85 1006.1
20260831021104 58 246 8.0 9.0 0.00 0.43 0.00 86 1006.1
20260831020604 58 225 2.0 9.0 0.00 0.43 0.00 86 1006.1
20260831014604 58 172 2.0 5.0 0.00 0.43 0.00 87 1006.1